This demonstration page uses our WeatherBlox Daily Observations layout. Learn more.

Left ArrowRight Arrow

Hourly Observations for December 4, 2022

Temp ( °F °C ) Dew Point ( °F °C ) Humidity (%) Winds ( mph kmh ) Pressure ( in mb ) Visibility ( mi km ) Precip ( " mm )
12:53 am 00:53 Clear 8 -13.3 4 -15.6 83 83 WSW 12 19 30.20 1023 10 16 0.00 0.00
1:53 am 01:53 Clear 4 -15.6 0 -17.8 83 83 WSW 8 13 30.16 1021 10 16 0.00 0.00
2:53 am 02:53 Clear 8 -13.3 3 -16.1 79 79 WSW 10 17 30.14 1021 10 16 0.00 0.00
3:53 am 03:53 Clear 10 -12.2 4 -15.6 76 76 WSW 18 30 30.09 1019 10 16 0.00 0.00
4:53 am 04:53 Clear 10 -12.2 4 -15.6 76 76 WSW 18 30 30.08 1019 10 16 0.00 0.00
5:53 am 05:53 Clear 9 -12.8 4 -15.6 79 79 SW 18 30 30.07 1018 10 16 0.00 0.00
6:53 am 06:53 Clear 11 -11.7 4 -15.6 73 73 W 12 19 30.09 1019 10 16 0.00 0.00
7:53 am 07:53 Clear 10 -12.2 4 -15.6 76 76 SW 13 20 30.10 1019 10 16 0.00 0.00
8:53 am 08:53 Sunny 20 -6.7 10 -12.2 65 65 SW 17 28 30.09 1019 10 16 0.00 0.00
9:53 am 09:53 Sunny 23 -5 13 -10.6 65 65 SW 16 26 30.10 1019 10 16 0.00 0.00
10:53 am 10:53 Sunny 26 -3.3 15 -9.4 63 63 SW 9 15 30.10 1019 10 16 0.00 0.00
11:53 am 11:53 Sunny 27 -2.8 16 -8.9 63 63 SW 9 15 30.08 1019 10 16 0.00 0.00
1:53 pm 13:53 Sunny 25 -3.9 17 -8.3 71 71 WSW 12 19 30.09 1019 10 16 0.00 0.00
4:53 pm 16:53 Clear 17 -8.3 13 -10.6 83 83 SW 10 17 30.09 1019 10 16 0.00 0.00
5:53 pm 17:53 Clear 13 -10.6 10 -12.2 88 88 SW 9 15 30.11 1020 10 16 0.00 0.00
6:53 pm 18:53 Clear 12 -11.1 9 -12.8 87 87 SSW 3 6 30.11 1020 10 16 0.00 0.00
7:53 pm 19:53 Clear 11 -11.7 9 -12.8 91 91 W 6 9 30.13 1020 10 16 0.00 0.00
8:53 pm 20:53 Mostly Cloudy 6 -14.4 4 -15.6 91 91 S 3 6 30.11 1020 10 16 0.00 0.00
9:53 pm 21:53 Partly Cloudy 7 -13.9 3 -16.1 83 83 SSE 5 7 30.11 1020 10 16 0.00 0.00
10:53 pm 22:53 Cloudy 7 -13.9 4 -15.6 87 87 W 6 9 30.11 1020 10 16 0.00 0.00
11:53 pm 23:53 Cloudy 10 -12.2 7 -13.9 87 87 Calm 30.10 1019 10 16 0.00 0.00

Powered by AerisWeather